This demonstration page uses our WeatherBlox Daily Observations layout. Learn more.

Left ArrowRight Arrow

Hourly Observations for February 18, 2016

Temp ( °F °C ) Dew Point ( °F °C ) Humidity (%) Winds ( mph kmh ) Pressure ( in mb ) Visibility ( mi km ) Precip ( " mm )
12:59 am 00:59 Mostly Cloudy 40 4.4 31 -0.6 70 70 NNE 14 22 30.31 1026 10 16 0.00 0.00
1:59 am 01:59 Mostly Cloudy 39 3.9 30 -1.1 70 70 N 12 19 30.32 1027 10 16 0.00 0.00
2:59 am 02:59 Mostly Cloudy 40 4.4 31 -0.6 70 70 N 7 11 30.33 1027 10 16 0.00 0.00
3:59 am 03:59 Mostly Cloudy 39 3.9 26 -3.3 60 60 N 10 17 30.35 1028 10 16 0.00 0.00
4:59 am 04:59 Partly Cloudy 38 3.3 26 -3.3 62 62 N 8 13 30.36 1028 10 16 0.00 0.00
5:59 am 05:59 Mostly Cloudy 38 3.3 25 -3.9 60 60 N 9 15 30.38 1029 10 16 0.00 0.00
6:59 am 06:59 Sunny 37 2.8 25 -3.9 62 62 N 9 15 30.40 1029 10 16 0.00 0.00
7:59 am 07:59 Sunny 40 4.4 27 -2.8 60 60 N 7 11 30.42 1030 10 16 0.00 0.00
8:59 am 08:59 Mostly Sunny 42 5.6 28 -2.2 58 58 NNE 13 20 30.46 1031 10 16 0.00 0.00
9:59 am 09:59 Mostly Sunny 43 6.1 27 -2.8 53 53 N 14 22 30.48 1032 10 16 0.00 0.00
10:59 am 10:59 Mostly Sunny 43 6.1 26 -3.3 51 51 N 14 22 30.49 1033 10 16 0.00 0.00
11:59 am 11:59 Partly Cloudy 45 7.2 26 -3.3 48 48 NNE 12 19 30.48 1032 10 16 0.00 0.00
12:59 pm 12:59 Partly Cloudy 45 7.2 24 -4.4 44 44 N 16 26 30.46 1032 10 16 0.00 0.00
1:59 pm 13:59 Partly Cloudy 46 7.8 24 -4.4 42 42 NNE 14 22 30.45 1031 10 16 0.00 0.00
2:59 pm 14:59 Mostly Sunny 44 6.7 24 -4.4 45 45 NNE 12 19 30.45 1031 10 16 0.00 0.00
3:59 pm 15:59 Mostly Sunny 43 6.1 25 -3.9 49 49 NE 16 26 30.47 1032 10 16 0.00 0.00
4:59 pm 16:59 Mostly Sunny 40 4.4 24 -4.4 53 53 NNE 15 24 30.48 1032 10 16 0.00 0.00
5:59 pm 17:59 Mostly Clear 37 2.8 22 -5.6 54 54 NNE 14 22 30.50 1033 10 16 0.00 0.00
6:59 pm 18:59 Partly Cloudy 37 2.8 23 -5 57 57 NNE 13 20 30.52 1033 10 16 0.00 0.00
7:59 pm 19:59 Partly Cloudy 36 2.2 23 -5 59 59 NNE 14 22 30.54 1034 10 16 0.00 0.00
8:59 pm 20:59 Clear 35 1.7 22 -5.6 59 59 NNE 14 22 30.54 1034 10 16 0.00 0.00
9:59 pm 21:59 Partly Cloudy 35 1.7 20 -6.7 54 54 NNE 12 19 30.55 1035 10 16 0.00 0.00
10:59 pm 22:59 Mostly Clear 35 1.7 19 -7.2 52 52 NNE 16 26 30.55 1035 10 16 0.00 0.00
11:59 pm 23:59 Mostly Clear 33 0.6 19 -7.2 56 56 NE 10 17 30.55 1035 10 16 0.00 0.00

Powered by AerisWeather